Regional Weather Roundup
Issued by NWS Cleveland, OH

Home | Current Version | Previous Version | Text Only | Print | Product List | Glossary Off
Versions: 1 2 3 4 5 6 7 8 9 10 11 12 13 14 15 16 17 18 19 20 21 22 23 24 25 26 27 28 29 30 31 32 33 34 35 36 37 38 39 40 41 42 43 44 45 46 47 48 49 50

000
ASUS41 KCLE 260412
RWRCLE
OHIO REGIONAL WEATHER ROUNDUP
NATIONAL WEATHER SERVICE WILMINGTON, OH
1200 AM EDT TUE SEP 26 2017

NOTE: "FAIR" INDICATES FEW OR NO CLOUDS BELOW 12,000 FEET WITH NO
SIGNIFICANT WEATHER AND/OR OBSTRUCTIONS TO VISIBILITY.

OHZ001>008-015>018-024>027-034-035-043-044-260500-
   NORTHWEST OHIO

CITY           SKY/WX    TMP DP  RH WIND       PRES   REMARKS
DEFIANCE       FAIR      70  63  78 CALM      29.98S
FINDLAY        FAIR      75  64  68 SE6       29.98S
TOLEDO EXPRESS FAIR      70  67  90 CALM      29.98S
TOLEDO EXEC    FAIR      73  68  84 SE3       29.99S
LIMA           FAIR      72  62  71 S6        30.00S
$$

OHZ009>014-019>023-028>033-038-089-260500-
   NORTHEAST OHIO

CITY           SKY/WX    TMP DP  RH WIND       PRES   REMARKS
CLE-HOPKINS    MOCLDY    75  62  64 S7        30.02S
CLE-LAKEFRONT  FAIR      77  60  55 S8        29.99S
CUY CO. ARPT   NOT AVBL
LORAIN-ELYRIA  FAIR      68  60  75 CALM      30.01S
ASHTABULA      FAIR      68  67  96 CALM      30.03S
AKRON-CANTON   MOCLDY    73  59  61 S3        30.03S
WOOSTER        FAIR      62  60  93 CALM      30.03S
MANSFIELD      FAIR      72  64  76 S6        30.03S
YOUNGSTOWN     CLOUDY    68  63  84 S5        30.03F
$$

OHZ042-051>053-060>062-070>072-077>081-260500-
  SOUTHWEST OHIO

CITY           SKY/WX    TMP DP  RH WIND       PRES   REMARKS
CINC-COVINGTON FAIR      72  66  81 S3        30.00S
CINC-LUNKEN    FAIR      67  66  97 CALM      30.00S
HAMILTON       FAIR      64  63  96 CALM      30.00S
DAYTON         FAIR      73  60  63 CALM      30.01S
WRIGHT-PAT AFB FAIR      69  66  88 CALM      30.00S
DAYTON GENERAL FAIR      73  60  63 CALM      30.00S
WILMINGTON     FAIR      66  64  93 CALM      30.02R
$$

OHZ036-037-039>041-045>050-054>059-063>069-073>076-082>088-260500-
  CENTRAL AND SOUTHEAST OHIO

CITY           SKY/WX    TMP DP  RH WIND       PRES   REMARKS
COLUMBUS       MOCLDY    74  65  73 CALM      30.00S
OSU AIRPORT    FAIR      70  65  84 CALM      30.01S
BOLTON FIELD   FAIR      67  63  87 CALM      30.01S
RICKENBACK AFB FAIR      71  64  79 CALM      30.00S
NEWARK         FAIR      66  64  93 CALM      30.01S
MARION         FAIR      70  62  76 S6        30.02S
LANCASTER      FAIR      64  63  96 CALM      30.01F
ZANESVILLE     FAIR      68  64  87 CALM      30.02S
NEW PHILLY     FAIR      64  63  96 CALM      30.03S
$$




USA.gov is the U.S. government's official web portal to all federal, state and local government web resources and services.